Kamloops,

9:16 PM PDT on May 25, 2017 (GMT -0700)
Kamloops

Weather History for CYKA - March, 2013

Change the Weather History Date:

Tuesday, March 12, 2013

  Actual Average Record
Temperature  
Mean Temperature 38 °F -  
Max Temperature 44 °F 54 °F 62 °F (2015)
Min Temperature 33 °F 32 °F 12 °F (2009)
Degree Days  
Heating Degree Days 26    
Moisture  
Dew Point 34 °F    
Average Humidity 84    
Maximum Humidity 93    
Minimum Humidity 65    
Precipitation  
Precipitation 0.16 in 0.02 in - ()
Sea Level Pressure  
Sea Level Pressure 30.01 in    
Wind  
Wind Speed 12 mph ()    
Max Wind Speed 21 mph    
Max Gust Speed 25 mph    
Visibility 8.7 miles    
Events Rain , Snow    
Averages and records for this station are not official NWS values.
T = Trace of Precipitation, MM = Missing Value Source: Averaged Metar Reports

Daily Weather History Graph

Daily Weather History Graph

Search for Another Location

Airport or City:

Trip Planner

Search our weather history database for the weather conditions in past years. The results will help you decide how hot, cold, wet, or windy it might be!

Date:

Astronomy

Mar. 12, 2013 Rise Set
Actual Time 7:21 AM PDT 7:02 PM PDT
Civil Twilight 6:48 AM PDT 7:35 PM PDT
Nautical Twilight 6:10 AM PDT 8:13 PM PDT
Astronomical Twilight 5:31 AM PDT 8:52 PM PDT
Moon 7:20 AM PDT (3/12) 8:36 PM PDT (3/12)
Length of Visible Light 12h 46m
Length of Day
11h 40m
New Moon, 1% of the Moon is Illuminated
Mar 12
New Moon
Mar 19
First Quarter
Mar 27
Full
Apr 2
Last Quarter
Apr 10
New

Hourly Weather History & Observations

Time (PDT) Temp. Windchill Dew Point Humidity Pressure Visibility Wind Dir Wind Speed Gust Speed Precip Events Conditions
12:00 AM 41.0 °F 32.8 °F 30.2 °F 65% 30.20 in 40.0 mi SE 16.1 mph - N/A   Overcast
12:46 AM - - - N/A% - 20.0 mi East 9.2 mph - N/A Rain Light Rain
1:00 AM 39.2 °F 32.5 °F 32.0 °F 75% 30.19 in 20.0 mi ENE 10.4 mph - N/A Rain Light Rain
1:44 AM - - - N/A% - 10.0 mi ESE 16.1 mph - N/A Rain Light Rain
1:49 AM - - - N/A% - 8.0 mi ESE 15.0 mph - N/A Rain Light Rain
2:00 AM 35.6 °F 25.9 °F 32.0 °F 87% 30.18 in 7.0 mi ESE 16.1 mph - N/A Rain , Snow Light Rain
2:28 AM - - - N/A% - 5.0 mi ESE 15.0 mph - N/A Rain Light Rain
3:00 AM 33.8 °F 24.8 °F 32.0 °F 93% 30.15 in 3.0 mi ESE 12.7 mph - N/A Rain , Snow Light Rain
3:35 AM - - - N/A% - 3.0 mi ESE 11.5 mph - N/A   Unknown
4:00 AM 33.8 °F 25.3 °F 32.0 °F 93% 30.12 in 3.0 mi East 11.5 mph - N/A Snow Light Snow
5:00 AM 34 °F - 32 °F 90% 30.08 in 3 mi ESE 11.5 mph - - Snow Light Snow
5:00 AM 33.8 °F 25.3 °F 32.0 °F 93% 30.08 in 3.0 mi ESE 11.5 mph - N/A Snow Light Snow
5:47 AM - - - N/A% - 10.0 mi East 12.7 mph - N/A   Overcast
6:00 AM 33.8 °F 24.8 °F 32.0 °F 93% 30.06 in 12.0 mi East 12.7 mph - N/A   Overcast
7:00 AM 33.8 °F 25.8 °F 32.0 °F 93% 30.02 in 15.0 mi East 10.4 mph - N/A   Overcast
8:00 AM 35.6 °F 26.6 °F 32.0 °F 87% 30.00 in 15.0 mi East 13.8 mph - N/A   Overcast
8:25 AM - - - N/A% - 6.0 mi East 12.7 mph - N/A   Unknown
9:00 AM 35.6 °F 28.6 °F 32.0 °F 87% 30.00 in 4.0 mi East 9.2 mph - N/A Snow Light Snow
10:00 AM 35.6 °F 29.2 °F 33.8 °F 93% 30.00 in 10.0 mi ESE 8.1 mph - N/A Snow Light Snow
10:32 AM - - - N/A% - 30.0 mi ESE 9.2 mph - N/A   Overcast
11:00 AM 36 °F - 33 °F 86% 29.98 in 28 mi East 8.1 mph - - Snow Light Snow
11:00 AM 37.4 °F 31.4 °F 33.8 °F 87% 29.98 in 30.0 mi East 8.1 mph - N/A   Overcast
12:00 PM 39.2 °F 31.6 °F 35.6 °F 87% 29.98 in 30.0 mi East 12.7 mph - N/A   Overcast
1:00 PM 39.2 °F 33.0 °F 33.8 °F 81% 29.97 in 30.0 mi East 9.2 mph - N/A   Overcast
1:15 PM - - - N/A% - 30.0 mi East 10.4 mph - N/A   Overcast
2:00 PM 39.2 °F 33.6 °F 35.6 °F 87% 29.96 in 30.0 mi ESE 8.1 mph - N/A   Mostly Cloudy
3:00 PM 41.0 °F 34.3 °F 33.8 °F 76% 29.95 in 30.0 mi ESE 11.5 mph - N/A   Scattered Clouds
4:00 PM 42.8 °F 35.8 °F 35.6 °F 76% 29.95 in 40.0 mi SE 13.8 mph - N/A   Mostly Cloudy
5:00 PM 43 °F - 36 °F 67% 29.93 in 37 mi SE 13.8 mph - -   Scattered Clouds
5:00 PM 42.8 °F 35.8 °F 35.6 °F 76% 29.93 in 40.0 mi SE 13.8 mph 20.7 mph N/A   Scattered Clouds
6:00 PM 41.0 °F 33.1 °F 35.6 °F 81% 29.92 in 40.0 mi ESE 15.0 mph 21.9 mph N/A   Scattered Clouds
7:00 PM 39.2 °F 32.5 °F 35.6 °F 87% 29.92 in 40.0 mi SE 10.4 mph 23.0 mph N/A   Mostly Cloudy
8:00 PM 39.2 °F 31.6 °F 35.6 °F 87% 29.93 in 40.0 mi SE 12.7 mph 21.9 mph N/A   Scattered Clouds
9:00 PM 39.2 °F 29.8 °F 33.8 °F 81% 29.92 in 40.0 mi East 18.4 mph - N/A   Scattered Clouds
10:00 PM 39.2 °F 29.3 °F 35.6 °F 87% 29.92 in 40.0 mi ESE 20.7 mph - N/A   Scattered Clouds
11:00 PM 40 °F - 35 °F 75% 29.92 in 37 mi ESE 17.3 mph - -   Partly Cloudy
11:00 PM 39.2 °F 30.5 °F 35.6 °F 87% 29.92 in 40.0 mi ESE 16.1 mph 25.3 mph N/A   Mostly Cloudy